When you browse on this site, cookies collect data to enhance your experience and personalize the content and advertising you see.
Visit our Privacy Policy to learn more. By continuing to use the site, you agree to this use of cookies and data.
  • In Denmark
  • List of Countries
  • For 7 days
  • Water Temperature
  • Satellite Maps
  • Weather Map
  • Weather Widgets
  • user-avatar
    Login

    Hourly Weather Melbourne

    Today, 26 June, Wednesday

    Time Temperature Precipitation Wind Pressure Humidity
    00:00 +8°C° 0 mm 2 mps 774 mmHg 80%
    01:00 +8°C° 0 mm 2 mps 774 mmHg 81%
    02:00 +8°C° 0 mm 2 mps 774 mmHg 80%
    03:00 +8°C° 0 mm 2 mps 774 mmHg 80%
    04:00 +8°C° 0 mm 1 mps 774 mmHg 77%
    05:00 +8°C° 0 mm 1 mps 774 mmHg 77%
    06:00 +7°C° 0 mm 2 mps 775 mmHg 77%
    07:00 +7°C° 0 mm 2 mps 775 mmHg 77%
    08:00 +8°C° 0 mm 2 mps 775 mmHg 71%
    09:00 +10°C° 0 mm 2 mps 775 mmHg 66%
    10:00 +13°C° 0 mm 2 mps 775 mmHg 60%
    11:00 +14°C° 0 mm 2 mps 774 mmHg 55%
    12:00 +16°C° 0 mm 2 mps 774 mmHg 51%
    13:00 +17°C° 0 mm 2 mps 773 mmHg 47%
    14:00 +17°C° 0 mm 2 mps 773 mmHg 49%
    15:00 +17°C° 0 mm 2 mps 773 mmHg 52%
    16:00 +16°C° 0 mm 1 mps 773 mmHg 57%
    17:00 +15°C° 0 mm 2 mps 773 mmHg 63%
    18:00 +13°C° 0 mm 2 mps 773 mmHg 69%
    19:00 +12°C° 0 mm 2 mps 773 mmHg 75%
    20:00 +10°C° 0 mm 2 mps 773 mmHg 77%
    21:00 +10°C° 0 mm 2 mps 773 mmHg 78%
    22:00 +9°C° 0 mm 2 mps 773 mmHg 77%
    23:00 +9°C° 0 mm 2 mps 773 mmHg 77%

    Tomorrow, 27 June, Thursday

    Time Temperature Precipitation Wind Pressure Humidity
    00:00 +9°C° 0 mm 3 mps 773 mmHg 78%
    01:00 +8°C° 0 mm 3 mps 773 mmHg 78%
    02:00 +8°C° 0 mm 3 mps 772 mmHg 77%
    03:00 +8°C° 0 mm 3 mps 772 mmHg 76%
    04:00 +7°C° 0 mm 4 mps 772 mmHg 75%
    05:00 +8°C° 0 mm 4 mps 772 mmHg 75%
    06:00 +8°C° 0 mm 4 mps 773 mmHg 75%
    07:00 +8°C° 0 mm 4 mps 773 mmHg 75%
    08:00 +10°C° 0 mm 4 mps 773 mmHg 71%
    09:00 +10°C° 0 mm 5 mps 773 mmHg 68%
    10:00 +12°C° 0 mm 5 mps 773 mmHg 65%
    11:00 +13°C° 0 mm 5 mps 772 mmHg 63%
    12:00 +15°C° 0 mm 5 mps 771 mmHg 60%
    13:00 +16°C° 0 mm 5 mps 771 mmHg 57%
    14:00 +16°C° 0 mm 5 mps 770 mmHg 57%
    15:00 +17°C° 0 mm 4 mps 770 mmHg 57%
    16:00 +17°C° 0 mm 4 mps 770 mmHg 57%
    17:00 +14°C° 0 mm 4 mps 770 mmHg 62%
    18:00 +13°C° 0 mm 4 mps 770 mmHg 67%
    19:00 +12°C° 0 mm 4 mps 770 mmHg 72%
    20:00 +12°C° 0 mm 4 mps 770 mmHg 73%
    21:00 +12°C° 0 mm 4 mps 770 mmHg 73%
    22:00 +12°C° 0 mm 4 mps 770 mmHg 73%
    23:00 +12°C° 0 mm 4 mps 770 mmHg 73%

    Day after tomorrow, 28 June, Friday

    Time Temperature Precipitation Wind Pressure Humidity
    00:00 +12°C° 0 mm 5 mps 770 mmHg 73%
    01:00 +12°C° 0 mm 5 mps 769 mmHg 73%
    02:00 +10°C° 0 mm 5 mps 769 mmHg 73%
    03:00 +10°C° 0 mm 5 mps 769 mmHg 73%
    04:00 +10°C° 0 mm 5 mps 769 mmHg 74%
    05:00 +10°C° 0 mm 6 mps 769 mmHg 74%
    06:00 +10°C° 0 mm 6 mps 769 mmHg 74%
    07:00 +10°C° 0 mm 6 mps 769 mmHg 74%
    08:00 +11°C° 0 mm 6 mps 769 mmHg 71%
    09:00 +13°C° 0 mm 6 mps 768 mmHg 68%
    10:00 +14°C° 0 mm 7 mps 768 mmHg 65%
    11:00 +15°C° 0 mm 7 mps 768 mmHg 62%
    12:00 +16°C° 0 mm 7 mps 767 mmHg 59%
    13:00 +17°C° 0 mm 7 mps 766 mmHg 56%
    14:00 +17°C° 0 mm 7 mps 765 mmHg 59%
    15:00 +17°C° 0 mm 7 mps 765 mmHg 61%
    16:00 +16°C° 0 mm 6 mps 764 mmHg 63%
    17:00 +16°C° 0 mm 6 mps 764 mmHg 65%
    18:00 +16°C° 0 mm 6 mps 764 mmHg 67%
    19:00 +15°C° 0 mm 6 mps 764 mmHg 68%
    20:00 +15°C° 0 mm 6 mps 764 mmHg 69%
    21:00 +15°C° 0 mm 6 mps 763 mmHg 70%
    22:00 +15°C° 0 mm 6 mps 763 mmHg 71%
    23:00 +15°C° 0.2 mm 6 mps 763 mmHg 73%

    29 June, Saturday

    Time Temperature Precipitation Wind Pressure Humidity
    00:00 +15°C° 0.2 mm 7 mps 762 mmHg 76%
    01:00 +14°C° 0.2 mm 7 mps 762 mmHg 78%
    02:00 +14°C° 0.3 mm 7 mps 761 mmHg 78%
    03:00 +14°C° 0.3 mm 7 mps 761 mmHg 78%
    04:00 +12°C° 0.3 mm 8 mps 760 mmHg 78%
    05:00 +12°C° 0.3 mm 7 mps 760 mmHg 80%
    06:00 +12°C° 0.3 mm 7 mps 759 mmHg 81%
    07:00 +12°C° 0.3 mm 7 mps 759 mmHg 83%
    08:00 +12°C° 0.8 mm 7 mps 759 mmHg 83%
    09:00 +12°C° 0.8 mm 7 mps 758 mmHg 83%
    10:00 +12°C° 0.8 mm 7 mps 758 mmHg 83%
    11:00 +12°C° 1.4 mm 7 mps 757 mmHg 83%
    12:00 +12°C° 1.4 mm 8 mps 756 mmHg 83%
    13:00 +12°C° 1.4 mm 8 mps 755 mmHg 84%
    14:00 +14°C° 1.5 mm 7 mps 754 mmHg 85%
    15:00 +14°C° 1.5 mm 6 mps 753 mmHg 86%
    16:00 +14°C° 1.5 mm 6 mps 752 mmHg 87%
    17:00 +13°C° 3.3 mm 6 mps 752 mmHg 85%
    18:00 +12°C° 3.3 mm 5 mps 753 mmHg 83%
    19:00 +10°C° 3.3 mm 5 mps 753 mmHg 81%
    20:00 +9°C° 1 mm 6 mps 753 mmHg 81%
    21:00 +9°C° 1 mm 6 mps 753 mmHg 81%
    22:00 +9°C° 1 mm 7 mps 754 mmHg 81%
    23:00 +9°C° 0.8 mm 7 mps 754 mmHg 81%

    30 June, Sunday

    Time Temperature Precipitation Wind Pressure Humidity
    00:00 +9°C° 0.8 mm 8 mps 755 mmHg 81%
    01:00 +9°C° 0.8 mm 8 mps 756 mmHg 81%
    02:00 +9°C° 0.1 mm 7 mps 757 mmHg 80%
    03:00 +8°C° 0.1 mm 6 mps 758 mmHg 78%
    04:00 +7°C° 0.1 mm 5 mps 759 mmHg 77%
    05:00 +7°C° 0 mm 5 mps 760 mmHg 77%
    06:00 +7°C° 0 mm 5 mps 760 mmHg 78%
    07:00 +7°C° 0 mm 5 mps 761 mmHg 78%
    08:00 +7°C° 0 mm 5 mps 762 mmHg 74%
    09:00 +8°C° 0 mm 5 mps 762 mmHg 70%
    10:00 +9°C° 0 mm 6 mps 763 mmHg 65%
    11:00 +9°C° 0 mm 5 mps 763 mmHg 62%
    12:00 +10°C° 0 mm 5 mps 763 mmHg 59%
    13:00 +10°C° 0 mm 5 mps 763 mmHg 56%
    14:00 +10°C° 0 mm 5 mps 763 mmHg 57%
    15:00 +11°C° 0 mm 4 mps 763 mmHg 57%
    16:00 +11°C° 0 mm 4 mps 763 mmHg 58%
    17:00 +11°C° 0 mm 4 mps 763 mmHg 60%
    18:00 +11°C° 0 mm 4 mps 763 mmHg 61%
    19:00 +10°C° 0 mm 4 mps 764 mmHg 62%
    20:00 +9°C° 0 mm 5 mps 764 mmHg 64%
    21:00 +9°C° 0 mm 5 mps 764 mmHg 65%
    22:00 +9°C° 0 mm 5 mps 764 mmHg 67%
    23:00 +8°C° 0 mm 5 mps 764 mmHg 69%

    1 July, Monday

    Time Temperature Precipitation Wind Pressure Humidity
    00:00 +8°C° 0 mm 5 mps 764 mmHg 71%
    01:00 +8°C° 0 mm 5 mps 764 mmHg 73%
    02:00 +8°C° 0 mm 5 mps 764 mmHg 73%
    03:00 +8°C° 0 mm 5 mps 764 mmHg 73%
    04:00 +8°C° 0 mm 5 mps 764 mmHg 74%
    05:00 +8°C° 0 mm 5 mps 764 mmHg 73%
    06:00 +8°C° 0 mm 5 mps 764 mmHg 72%
    07:00 +8°C° 0 mm 6 mps 765 mmHg 71%
    08:00 +8°C° 0 mm 6 mps 765 mmHg 68%
    09:00 +9°C° 0 mm 6 mps 765 mmHg 65%
    10:00 +10°C° 0 mm 7 mps 764 mmHg 62%
    11:00 +10°C° 0 mm 7 mps 764 mmHg 61%
    12:00 +11°C° 0 mm 7 mps 763 mmHg 60%
    13:00 +11°C° 0 mm 7 mps 763 mmHg 60%
    14:00 +11°C° 0 mm 7 mps 762 mmHg 61%
    15:00 +10°C° 0 mm 7 mps 762 mmHg 63%
    16:00 +10°C° 0 mm 6 mps 761 mmHg 64%
    17:00 +10°C° 0 mm 6 mps 761 mmHg 65%
    18:00 +10°C° 0 mm 7 mps 761 mmHg 65%
    19:00 +9°C° 0 mm 7 mps 761 mmHg 65%
    20:00 +9°C° 0 mm 7 mps 761 mmHg 65%
    21:00 +9°C° 0 mm 7 mps 761 mmHg 65%
    22:00 +9°C° 0 mm 7 mps 761 mmHg 65%
    23:00 +9°C° 0 mm 7 mps 761 mmHg 64%
    Show more